Regional Weather Roundup
Issued by NWS

Home | Current Version | Previous Version | Text Only | Print | Product List | Glossary Off
Versions: 1 2 3 4 5 6 7 8 9 10 11 12 13 14 15 16 17 18 19 20 21 22 23 24 25 26 27 28 29 30 31 32 33 34 35 36 37 38 39 40 41 42 43 44 45 46 47 48 49 50

850
ASUS43 KTOP 152308
RWRKS

WEATHER ROUNDUP FOR KANSAS
NATIONAL WEATHER SERVICE GOODLAND KS
500 PM CST FRI DEC 15 2017

NOTE:  "FAIR" INDICATES FEW OR NO CLOUDS BELOW 12,000 FEET WITH NO
SIGNIFICANT WEATHER AND/OR OBSTRUCTIONS TO VISIBILITY.

KSZ001>006-013>018-027>032-041>047-160000-
NORTHWEST KANSAS

CITY           SKY/WX    TMP DP  RH WIND       PRES   REMARKS
GOODLAND       CLOUDY    55   3  12 SW13      29.87F
HAYS           CLEAR     53  17  24 SW12      29.92S
HILL CITY      CLEAR     56  14  19 SW8       29.88F
RUSSELL        CLEAR     52  19  27 SW13      29.90S
$$

KSZ061>065-074>080-084>089-160000-
SOUTHWEST KANSAS

CITY           SKY/WX    TMP DP  RH WIND       PRES   REMARKS
DODGE CITY     CLEAR     52  19  27 SW13      29.97F
ELKHART        CLEAR     56  17  21 SW8       29.98F
GARDEN CITY    CLEAR     52  13  21 S10       29.94F
GREAT BEND     CLEAR     52  20  28 SW15      29.94F
LIBERAL        CLEAR     53  18  25 S10       30.00F
PRATT          CLEAR     50  20  30 SW13      29.99F
$$

KSZ066>073-081>083-090>101-160000-
SOUTHEAST KANSAS

CITY           SKY/WX    TMP DP  RH WIND       PRES   REMARKS
CHANUTE        CLEAR     45  23  42 SW9       30.08F
COFFEYVILLE    CLEAR     46  23  40 SW8       30.11F
HUTCHINSON     CLEAR     51  22  31 SW14      29.98F
MEDICINE LODGE   N/A     52  24  33 S10       30.01F
NEWTON         CLEAR     46  23  40 SW13      30.00F
PARSONS        CLEAR     45  23  42 SW8       30.11S
WICHITA INTL   CLEAR     48  25  40 S14       30.02F
WICHITA JABRA  CLEAR     47  24  40 SW17G23   30.02F
WICHITA MCCONL CLEAR     47  23  38 SW14      30.02F
WINFIELD       CLEAR     46  25  43 SW13      30.09F
$$

KSZ007>012-019>026-033>040-048>060-102>105-160000-
NORTHEAST KANSAS

CITY           SKY/WX    TMP DP  RH WIND       PRES   REMARKS
CONCORDIA      CLEAR     48  22  35 SW8       29.90S
EMPORIA        CLEAR     45  25  45 SW15      29.99F
LAWRENCE       CLEAR     46  23  40 S13       29.99F
MANHATTAN      CLEAR     49  23  36 SW13      29.94F
MARYSVILLE     CLEAR     46  25  42 SW8       29.91F
OLATHE IND     CLEAR     42  23  46 S9        30.00F
OLATHE EXE     CLEAR     42  22  44 SW6       30.00F
SALINA         CLEAR     53  22  29 S14       29.93F
TOPEKA BILLARD CLEAR     48  25  40 SW9       29.98F
TOPEKA FORBES  CLEAR     47  25  42 S9        29.97F
$$




USA.gov is the U.S. government's official web portal to all federal, state and local government web resources and services.